Regional Weather Roundup
Issued by NWS

Home | Current Version | Previous Version | Graphics & Text | Print | Product List | Glossary On
Versions: 1 2 3 4 5 6 7 8 9 10 11 12 13 14 15 16 17 18 19 20 21 22 23 24 25 26 27
000
ASUS45 KTFX 250610
RWRMT
MONTANA REGIONAL WEATHER ROUNDUP
NATIONAL WEATHER SERVICE GREAT FALLS MT
1200 AM MDT THU MAY 25 2017

NOTE: "FAIR" INDICATES FEW OR NO CLOUDS BELOW 12000 FEET WITH NO
SIGNIFICANT WEATHER AND/OR OBSTRUCTIONS TO VISIBILITY.

MTZ001>007-043-250700-
WEST OF THE DIVIDE

CITY           SKY/WX    TMP DP  RH WIND       PRES   REMARKS
KALISPELL      CLOUDY    46  40  79 S3        29.71S
MISSOULA       CLOUDY    49  32  52 NW9       29.73S
BUTTE          CLEAR     42  18  37 NW10G20   29.70S
MULLAN PASS    CLOUDY    34  27  75 NW7       29.74F WCI  28
ANACONDA         N/A     45  18  33 W10       29.70F
DEER LODGE       N/A     45  23  42 NW5       29.72S
EUREKA           N/A     45  37  76 SE3       29.71R
HAMILTON         N/A     52  23  32 W12G18    29.73F
PLAINS           N/A     51  32  48 CALM      29.74F
RONAN            N/A     50  33  51 CALM      29.79S
$$

MTZ008-052>055-250700-
SOUTHWEST MONTANA

CITY           SKY/WX    TMP DP  RH WIND       PRES   REMARKS
BOZEMAN        CLEAR     43  22  43 NW10      29.65S
DILLON         PTCLDY    45  15  30 N18G26    29.68R
W YELLOWSTONE  CLEAR     34  21  60 CALM      29.64R
ENNIS          CLEAR     43  16  33 N13       29.70R
THREE FORKS      N/A     45  21  38 W5        29.68R
TWIN BRIDGES     N/A     47  15  27 N8        29.71R
$$

MTZ009-010-012-014-046-048-049-054-250700-
EAST SLOPES AND CENTRAL MONTANA

CITY           SKY/WX    TMP DP  RH WIND       PRES   REMARKS
CUT BANK       LGT RAIN  42  38  85 W31G38    29.51S
GREAT FALLS    LGT RAIN  46  33  60 W28G35    29.56R
MALMSTROM AFB  DRIZZLE   47  36  64 W20G29    29.56R
HELENA         MOCLDY    51  24  34 W13G26    29.62F
CHOTEAU          N/A     46  30  53 W18G26    29.57S
CONRAD           N/A     48  44  86 W31       29.59S
$$

MTZ011-013-016-021-045-047-050-051-250700-
NORTH CENTRAL MONTANA

CITY           SKY/WX    TMP DP  RH WIND       PRES   REMARKS
HAVRE          LGT RAIN  45  41  86 W32G47    29.36F
LEWISTOWN      CLEAR     41  25  53 W14       29.51F
N BAR RANCH      N/A     45  19  36 W6G13     29.50R
CHINOOK          N/A     46  39  76 SW26G39   29.33F
FORT BENTON      N/A     46  37  71 CALM      29.51R
$$

MTZ017>020-022>027-061-062-250700-
NORTHEAST MONTANA

CITY           SKY/WX    TMP DP  RH WIND       PRES   REMARKS
GLASGOW        CLEAR     50  20  30 W9        29.36F
JORDAN           N/A     43  19  38 NW7       29.43F
SIDNEY         CLOUDY    52  49  89 S8        29.40R
WOLF POINT     CLEAR     46  24  42 SW5       29.36F
MALTA          PTCLDY    48  32  53 W13       29.34F
SCOBEY           N/A     48  20  33 SW5       29.36F
$$

MTZ028>42-056>058-250700-
SOUTHCENTRAL AND SOUTHEAST MONTANA

CITY           SKY/WX    TMP DP  RH WIND       PRES   REMARKS
BAKER          CLOUDY    51  46  83 E9        29.44S
BILLINGS       PTCLDY    50  20  30 N9        29.53R
LIVINGSTON     CLEAR     45  19  35 W14       29.60R
MILES CITY     PTCLDY    53  22  29 NW7       29.45R
BIG TIMBER     CLEAR     48  18  29 W25G35    29.58S
EKALAKA          N/A     51  41  69 N2        29.47F
FORSYTH          N/A     55  21  26 CALM      29.48R
LAUREL           N/A     44  19  37 NW5       29.57R
ROUNDUP          N/A     50  18  28 S3        29.47S
$$

REGIONAL REPORTS...DAKOTAS

CITY           SKY/WX    TMP DP  RH WIND       PRES   REMARKS
WILLISTON      CLOUDY    54  50  86 S7        29.38F
MINOT          CLOUDY    59  47  64 SE12      29.44R
DICKINSON      LGT RAIN  51  47  86 N10       29.42R
BEACH          CLOUDY    50  50 100 E6        29.46S
TIOGA          CLOUDY    52  52 100 S10       29.41F
WATFORD CITY   CLOUDY    52  52 100 SE9       29.40F
BISMARCK       CLOUDY    59  44  57 SE15      29.46R
GRAND FORKS    PTCLDY    53  44  71 SE10      29.61R
FARGO          CLEAR     54  43  66 SE13      29.61F
BUFFALO SD       N/A     54  47  77 N28G35    29.33R
RAPID CITY     CLEAR     62  51  67 CALM      29.33R
$$

REGIONAL REPORTS...WYOMING/IDAHO/WASHINGTON

CITY           SKY/WX    TMP DP  RH WIND       PRES   REMARKS
GILLETTE       CLEAR     49  34  56 N8        29.49S
SHERIDAN       CLEAR     51  36  56 W12       29.50R
BUFFALO WY     CLEAR     51  32  48 NW12      29.54S
CODY           CLEAR     51  18  27 NW9       29.56R
YELLOWSTONE LA   N/A     40  11  30 NW7       29.65S
IDAHO FALLS    PTCLDY    49  22  34 SW9       29.59R
SALMON         MOCLDY    48  21  34 NE15G21   29.71R
BOISE          CLEAR     54  27  35 NW18      29.69R
SPOKANE        PTCLDY    50  36  58 NW3       29.76S
$$

REGIONAL REPORTS...ALBERTA

CITY           SKY/WX    TMP DP  RH WIND       PRES   REMARKS
EDMONTON       PTCLDY    50  45  81 NW10      29.55R
CALGARY        MOCLDY    50  39  66 NW33G43   29.54R
LETHBRIDGE     LGT RAIN  46  43  87 W24G33    29.50R
MEDICINE HAT   CLOUDY    50  46  87 NW24G35   29.23R
WATERTON GATE    N/A     39  34  81 SW17G28     N/A  WCI  30
CARDSTON         N/A     43  39  87 W15G28      N/A
MILK RIVER       N/A     45  43  93 NW33G44     N/A
ONEFOUR          N/A     46  45  93 W26         N/A
$$

REGIONAL REPORTS...SASKATCHEWAN

CITY           SKY/WX    TMP DP  RH WIND       PRES   REMARKS
SWIFT CURRENT  CLOUDY    43  34  70 S15G24    29.20F
REGINA         PTCLDY    50  37  62 SW3       29.26S
SASKATOON      LGT RAIN  48  43  81 S8        29.20S
CYPRESS HILLS    N/A     43  39  87 NW13G23     N/A
VAL MARIE        N/A     45  34  65 S9          N/A
ROCKGLEN         N/A     41  25  52 SW12G20     N/A
ASSINIBOIA       N/A     52  48  87 N25G32      N/A
$$




USA.gov is the U.S. government's official web portal to all federal, state and local government web resources and services.